This is the latest recevied weather packets stored in our database for station/object KD0OXW. If no packets are shown the sender has not sent any weather packets the latest 10 day(s).
| Time | Temp. | Humidity | Pressure | Rain* | Wind** | Luminosity | Snow |
|---|---|---|---|---|---|---|---|
| 1777726999 | 4.44° C | 63% | 1019.3 hPa | 0 mm | - | - | - |
| 1777726699 | 3.89° C | 71% | 1019.3 hPa | 0 mm | - | - | - |
| 1777726399 | 3.33° C | 75% | 1019.4 hPa | 0 mm | - | - | - |
| 1777726099 | 2.78° C | 84% | 1019.3 hPa | 0 mm | - | - | - |
| 1777725799 | 2.22° C | 87% | 1019.3 hPa | 0 mm | - | - | - |
| 1777725499 | 1.67° C | 88% | 1019.3 hPa | 0 mm | - | - | - |
| 1777725199 | 1.11° C | 89% | 1019.4 hPa | 0 mm | - | - | - |
| 1777724899 | 0.56° C | 89% | 1019.4 hPa | 0 mm | - | - | - |
| 1777724599 | 0° C | 90% | 1019.5 hPa | 0 mm | - | - | - |
| 1777724299 | -0.56° C | 91% | 1019.5 hPa | 0 mm | - | - | - |
| 1777723999 | -1.11° C | 91% | 1019.5 hPa | 0 mm | - | - | - |
| 1777723699 | -1.11° C | 91% | 1019.4 hPa | 0 mm | - | - | - |
| 1777723399 | -1.67° C | 91% | 1019.4 hPa | 0 mm | - | - | - |
| 1777723100 | -2.22° C | 91% | 1019.4 hPa | 0 mm | - | - | - |
| 1777722800 | -2.22° C | 91% | 1019.4 hPa | 0 mm | - | - | - |
| 1777722499 | -2.78° C | 92% | 1019.3 hPa | 0 mm | - | - | - |
| 1777722200 | -2.78° C | 92% | 1019.3 hPa | 0 mm | - | - | - |
| 1777721900 | -3.33° C | 93% | 1019.4 hPa | 0 mm | - | - | - |
| 1777721600 | -3.33° C | 93% | 1019.4 hPa | 0 mm | - | - | - |
| 1777721300 | -3.89° C | 93% | 1019.4 hPa | 0 mm | - | - | - |
| 1777721000 | -4.44° C | 93% | 1019.3 hPa | 0 mm | - | - | - |
| 1777720700 | -4.44° C | 92% | 1019.3 hPa | 0 mm | - | - | - |
| 1777720400 | -4.44° C | 91% | 1019.3 hPa | 0 mm | - | - | - |
| 1777720100 | -4.44° C | 91% | 1019.3 hPa | 0 mm | - | - | - |
| 1777719800 | -4.44° C | 91% | 1019.3 hPa | 0 mm | - | - | - |
* Rain latest hour (hover to see other rain measurements)
** Current wind speed in m/s (hover to see current wind gust speed)